DW7423 Weather Reports


Display with metric or nautical units.
time (UTC)temp
F
wind
direction
speed
MPH
gust
MPH
rain 1hr
in
rain 24hr
in
rain mn
in
humidity
%
barometer
mb
20260509164526 83 97 0.0 4.0 0.00 0.00 0.00 64 1010.3
20260509163022 82 213 0.0 3.0 0.00 0.00 0.00 58 1010.3
20260509161519 81 213 0.0 4.0 0.00 0.00 0.00 40 1010.4
20260509160015 79 238 0.0 4.0 0.00 0.00 0.00 28 1010.3
20260509154509 78 169 0.0 5.0 0.00 0.00 0.00 1 1010.4
20260509153011 77 193 0.0 3.0 0.00 0.00 0.00 1 1010.4
20260509151600 76 199 0.0 5.0 0.00 0.00 0.00 1 1010.4
20260509150055 74 200 0.0 4.0 0.00 0.00 0.00 1 1010.6
20260509144552 74 171 0.0 5.0 0.00 0.00 0.00 1 1010.3
20260509143047 73 199 0.0 4.0 0.00 0.00 0.00 1 1010.2
20260509141544 73 181 0.0 6.0 0.00 0.00 0.00 1 1010.0
20260509140052 73 183 1.0 4.0 0.00 0.00 0.00 1 1010.1
20260509134534 73 45 0.0 0.0 0.00 0.00 0.00 1 1010.3
20260509133038 73 45 0.0 0.0 0.00 0.00 0.00 1 1010.4
20260509131530 73 45 0.0 0.0 0.00 0.00 0.00 1 1010.4
20260509130025 0 0.0 0.0 0.00 0.00 0.00 1010.0
20260509124521 0 0.0 0.0 0.00 0.00 0.00 1009.6
20260509123017 0 0.0 0.0 0.00 0.00 0.00 1009.8
20260509121512 0 0.0 0.0 0.00 0.00 0.00 1010.0
20260509120008 0 0.0 0.0 0.00 0.00 0.00 1010.1
20260509114503 0 0.0 0.0 0.00 0.00 0.00 1010.2
20260509113100 73 44 0.0 0.0 0.00 0.00 0.00 1 1010.6
20260509111558 73 44 0.0 3.0 0.00 0.00 0.00 1 1010.7
20260509110051 73 45 0.0 3.0 0.00 0.00 0.00 1 1011.0
20260509104548 73 46 0.0 5.0 0.00 0.00 0.00 1 1011.0
20260509103047 73 105 0.0 0.0 0.00 0.00 0.00 1 1010.9
20260509101539 73 107 0.0 0.0 0.00 0.00 0.00 1 1010.4
20260509100032 73 107 0.0 0.0 0.00 0.00 0.00 1 1009.9
20260509094527 73 107 0.0 0.0 0.00 0.00 0.00 1 1009.6
20260509093023 73 107 0.0 0.0 0.00 0.00 0.00 1 1009.8
20260509091519 73 107 0.0 0.0 0.00 0.00 0.00 1 1009.6
20260509090023 73 107 0.0 0.0 0.00 0.00 0.00 1 1009.5
20260509084510 73 107 0.0 0.0 0.00 0.00 0.00 1 1009.7
20260509083007 73 105 0.0 0.0 0.00 0.00 0.00 1 1009.8
20260509081502 73 155 0.0 0.0 0.00 0.00 0.00 1 1010.1
20260509080059 73 160 0.0 0.0 0.00 0.00 0.00 1 1009.8
20260509074609 73 165 0.0 0.0 0.00 0.00 0.00 1 1009.6
20260509073103 73 171 0.0 0.0 0.00 0.00 0.00 1 1009.9
20260509071552 73 171 0.0 0.0 0.00 0.00 0.00 2 1010.0
20260509070043 73 171 0.0 0.0 0.00 0.00 0.00 2 1010.1
20260509064537 73 207 0.0 3.0 0.00 0.00 0.00 3 1009.7
20260509063041 73 207 0.0 1.0 0.00 0.00 0.00 5 1009.6
20260509061529 73 210 0.0 4.0 0.00 0.00 0.00 6 1009.8
20260509060029 73 213 0.0 10.0 0.00 0.00 0.00 10 1009.7
20260509054523 74 188 2.0 9.0 0.00 0.00 0.00 13 1009.5
20260509053032 74 200 2.0 7.0 0.00 0.00 0.00 15 1009.6
20260509051520 74 171 1.0 5.0 0.00 0.00 0.00 18 1009.3
20260509050015 74 174 0.0 6.0 0.00 0.00 0.00 24 1009.3
20260509044514 75 188 3.0 7.0 0.00 0.00 0.00 26 1009.2
20260509043029 75 169 5.0 9.0 0.00 0.00 0.00 27 1009.1
20260509041515 75 190 2.0 7.0 0.00 0.00 0.00 27 1009.4
20260509040011 75 184 2.0 6.0 0.00 0.00 0.00 30 1009.6
20260509034509 75 198 1.0 6.0 0.00 0.00 0.00 33 1009.6
20260509033007 75 175 0.0 5.0 0.00 0.00 0.00 37 1009.5
20260509031511 75 186 1.0 5.0 0.00 0.00 0.00 40 1009.2
20260509030005 75 183 0.0 5.0 0.00 0.00 0.00 43 1009.0
20260509024503 76 177 0.0 5.0 0.00 0.00 0.00 47 1009.0
20260509023001 76 136 0.0 0.0 0.00 0.00 0.00 51 1009.0
20260509021502 76 136 0.0 4.0 0.00 0.00 0.00 51 1008.6
20260509020112 76 174 3.0 6.0 0.00 0.00 0.00 52 1008.3
20260509014558 76 138 0.0 5.0 0.00 0.00 0.00 54 1008.2
20260509013102 77 196 3.0 6.0 0.00 0.00 0.00 55 1008.3
20260509011602 77 203 2.0 8.0 0.00 0.00 0.00 57 1008.2
20260509010100 77 173 0.0 5.0 0.00 0.00 0.00 59 1008.1
20260509004555 77 174 4.0 8.0 0.00 0.00 0.00 60 1008.0
20260509003058 78 166 1.0 6.0 0.00 0.00 0.00 61 1008.0
20260509001554 78 169 0.0 7.0 0.00 0.00 0.00 62 1008.1
20260509000053 78 165 4.0 9.0 0.00 0.00 0.00 63 1008.2
20260508234559 79 183 1.0 9.0 0.00 0.00 0.00 64 1008.1
20260508233100 79 178 1.0 9.0 0.00 0.00 0.00 64 1007.9
20260508231552 79 200 4.0 8.0 0.00 0.00 0.00 65 1008.0
20260508230054 79 226 2.0 8.0 0.00 0.00 0.00 66 1008.2
20260508224554 79 188 5.0 9.0 0.00 0.00 0.00 66 1008.0
20260508223050 79 180 4.0 10.0 0.00 0.00 0.00 67 1008.1
20260508221553 80 169 1.0 8.0 0.00 0.00 0.00 67 1008.2
20260508220052 80 200 2.0 7.0 0.00 0.00 0.00 67 1008.2
20260508214547 80 190 2.0 9.0 0.00 0.00 0.00 66 1008.3
20260508213047 79 182 2.0 6.0 0.00 0.00 0.00 67 1008.4
20260508211542 79 177 3.0 9.0 0.00 0.00 0.00 67 1008.6
20260508210040 79 172 2.0 10.0 0.00 0.00 0.00 67 1008.9
20260508204539 79 190 2.0 8.0 0.00 0.00 0.00 67 1009.1
20260508203037 79 128 0.0 6.0 0.00 0.00 0.00 67 1009.2
20260508201535 79 192 1.0 6.0 0.00 0.00 0.00 67 1009.4
20260508200035 80 65 3.0 9.0 0.00 0.00 0.00 67 1009.5
20260508194531 80 182 2.0 8.0 0.00 0.00 0.00 66 1009.7
20260508193029 79 92 3.0 7.0 0.00 0.00 0.00 66 1009.9
20260508191529 79 173 1.0 7.0 0.00 0.00 0.00 67 1010.2
20260508190024 78 180 1.0 7.0 0.00 0.00 0.00 67 1010.3
20260508184523 78 98 1.0 5.0 0.00 0.00 0.00 66 1010.4
20260508183020 78 78 0.0 5.0 0.00 0.00 0.00 67 1010.7
20260508181517 77 178 3.0 7.0 0.00 0.00 0.00 66 1011.0
20260508180014 77 111 1.0 6.0 0.00 0.00 0.00 67 1011.3
20260508174513 77 123 0.0 6.0 0.00 0.00 0.00 67 1011.3
20260508173011 77 182 1.0 6.0 0.00 0.00 0.00 67 1011.4
20260508171510 76 110 0.0 7.0 0.00 0.00 0.00 66 1011.7
20260508170006 76 92 0.0 5.0 0.00 0.00 0.00 67 1011.6